Location: Unspecified
(0.0000°N, 0.0000°E)
Time: 15:51:49
(UTC+00:00)

Vanguard 1 - All Passes

Search period start: 23 July 2014 00:00
Search period end: 02 August 2014 00:00
Orbit: 649 x 3838 km, 34.2° (Epoch: 19 July)

Date Brightness Start Highest point End Pass type
(mag) Time Alt. Az. Time Alt. Az. Time Alt. Az.
23 Jul - 04:42:53 10° SSW 04:48:08 31° SSE 04:52:09 10° E visible
23 Jul - 07:04:49 10° W 07:08:20 22° NW 07:11:59 10° NNE daylight
23 Jul - 14:14:27 10° NNW 14:25:57 26° NE 14:42:10 10° E daylight
23 Jul - 16:34:05 10° NW 16:52:29 70° NE 17:16:06 10° ESE daylight
23 Jul - 18:58:42 10° WNW 19:20:23 56° SW 19:41:10 10° SE visible
23 Jul - 21:33:40 10° WSW 21:49:37 23° SSW 22:02:11 10° SSE visible
24 Jul - 02:44:55 10° S 02:47:24 11° SSE 02:49:33 10° SSE visible
24 Jul - 05:04:09 10° SW 05:09:52 56° SE 05:14:12 10° ENE visible
24 Jul - 07:28:28 10° NW 07:30:06 12° NNW 07:31:48 10° N daylight
24 Jul - 14:35:18 10° NNW 14:48:19 35° NE 15:07:15 10° E daylight
24 Jul - 16:55:42 10° NW 17:14:42 85° NE 17:38:34 10° SE daylight
24 Jul - 19:21:54 10° WNW 19:43:00 46° SW 20:02:39 10° SE visible
24 Jul - 22:00:09 10° WSW 22:13:07 18° SSW 22:23:28 10° SSE visible
25 Jul - 03:04:50 10° SSW 03:09:54 17° SSE 03:13:42 10° ESE visible
25 Jul - 05:25:50 10° WSW 05:31:25 75° NW 05:35:47 10° NE visible
25 Jul - 12:40:52 10° NNE 12:44:41 12° NNE 12:49:06 10° NE daylight
25 Jul - 14:56:19 10° NNW 15:10:27 45° NE 15:31:30 10° ESE daylight
25 Jul - 17:17:35 10° WNW 17:36:59 81° SW 18:00:42 10° SE daylight
25 Jul - 19:45:43 10° W 20:05:52 37° SSW 20:24:05 10° SSE visible
25 Jul - 22:27:03 10° SW 22:36:55 15° SSW 22:44:59 10° SSE visible
26 Jul - 01:05:27 10° S 01:07:06 10° S 01:08:38 10° SSE night (unlit)
26 Jul - 03:25:39 10° SSW 03:32:09 26° SSE 03:36:37 10° E visible
26 Jul - 05:47:59 10° WSW 05:52:52 37° NW 05:56:56 10° NNE daylight
26 Jul - 13:00:02 10° N 13:07:20 17° NE 13:17:05 10° ENE daylight
26 Jul - 15:17:28 10° NW 15:32:29 57° NE 15:55:02 10° ESE daylight
26 Jul - 17:39:46 10° WNW 17:59:25 67° SW 18:22:36 10° SE daylight
26 Jul - 20:10:17 10° W 20:29:03 30° SSW 20:45:33 10° SSE visible
26 Jul - 22:53:34 10° SW 23:00:54 13° S 23:07:02 10° SSE visible
27 Jul - 01:25:16 10° SSW 01:30:12 13° S 01:34:09 10° SE night (unlit)
27 Jul - 03:46:54 10° SW 03:54:11 41° SSE 03:58:54 10° ENE visible
27 Jul - 06:10:47 10° W 06:14:20 19° NW 06:17:33 10° N daylight
27 Jul - 13:20:18 10° N 13:29:39 24° NE 13:43:19 10° E daylight
27 Jul - 15:38:48 10° NW 15:54:29 71° NE 16:18:02 10° ESE daylight
27 Jul - 18:02:20 10° WNW 18:22:01 54° SW 18:44:21 10° SE visible
27 Jul - 20:35:38 10° WSW 20:52:35 24° SSW 21:07:07 10° SSE visible
27 Jul - 23:18:41 10° SSW 23:24:53 12° S 23:30:04 10° SSE visible
28 Jul - 01:46:04 10° SSW 01:53:03 18° SSE 01:58:02 10° ESE night (unlit)
28 Jul - 04:08:29 10° SW 04:15:57 71° SE 04:20:42 10° ENE visible
28 Jul - 13:40:55 10° NNW 13:51:42 33° NE 14:08:28 10° E daylight
28 Jul - 16:00:21 10° NW 16:16:35 87° NE 16:40:36 10° SE daylight
28 Jul - 18:25:24 10° W 18:44:51 44° SSW 19:06:00 10° SE visible
28 Jul - 21:01:40 10° WSW 21:16:29 20° SSW 21:28:55 10° SSE visible
28 Jul - 23:41:58 10° SSW 23:48:41 13° S 23:54:06 10° SSE visible
29 Jul - 02:07:10 10° SSW 02:15:37 25° SSE 02:21:07 10° ESE visible
29 Jul - 04:30:27 10° WSW 04:37:30 65° NW 04:42:08 10° NE visible
29 Jul - 14:01:47 10° NNW 14:13:33 43° NE 14:32:45 10° ESE daylight
29 Jul - 16:22:09 10° WNW 16:38:50 78° SW 17:02:50 10° SE daylight
29 Jul - 18:49:04 10° W 19:07:59 36° SSW 19:27:39 10° SSE visible
29 Jul - 21:27:56 10° SW 21:40:39 17° SSW 21:51:11 10° SSE visible
30 Jul - 00:04:07 10° SSW 00:12:13 16° S 00:18:19 10° SE night (unlit)
30 Jul - 02:28:31 10° SW 02:37:57 36° SSE 02:43:37 10° E visible
30 Jul - 04:52:52 10° WSW 04:58:52 35° NW 05:03:09 10° NNE visible
30 Jul - 12:06:54 10° N 12:11:52 14° NE 12:18:08 10° ENE daylight
30 Jul - 14:22:51 10° NW 14:35:20 57° NE 14:56:21 10° ESE daylight
30 Jul - 16:44:16 10° WNW 17:01:16 64° SW 17:24:51 10° SE daylight
30 Jul - 19:13:23 10° WSW 19:31:27 29° SSW 19:49:23 10° SSE visible
30 Jul - 21:53:43 10° SW 22:04:57 16° S 22:14:06 10° SSE visible
31 Jul - 00:25:49 10° SSW 00:35:26 19° SSE 00:42:08 10° ESE night (unlit)
31 Jul - 02:50:06 10° SW 03:00:01 54° SSE 03:05:39 10° ENE visible
31 Jul - 05:15:59 10° W 05:20:14 19° NW 05:23:38 10° N visible
31 Jul - 12:26:33 10° N 12:33:54 21° NE 12:44:35 10° E daylight
31 Jul - 14:44:06 10° NW 14:57:10 73° NE 15:19:23 10° ESE daylight
31 Jul - 17:06:45 10° WNW 17:23:58 52° SSW 17:46:44 10° SE daylight
31 Jul - 19:38:25 10° WSW 19:55:19 24° SSW 20:11:20 10° SSE visible
31 Jul - 22:18:22 10° SSW 22:29:11 16° S 22:37:44 10° SSE visible
01 Aug - 00:47:22 10° SSW 00:58:22 25° SSE 01:05:24 10° ESE night (unlit)
01 Aug - 03:11:59 10° SW 03:21:48 84° SE 03:27:19 10° NE visible
01 Aug - 12:46:56 10° NNW 12:55:41 30° NE 13:09:41 10° E daylight
01 Aug - 15:05:36 10° NW 15:19:08 90° NE 15:42:00 10° SE daylight
01 Aug - 17:29:43 10° W 17:46:57 42° SSW 18:08:33 10° SE daylight
01 Aug - 20:03:58 10° WSW 20:19:32 21° SSW 20:33:40 10° SSE visible
01 Aug - 22:41:47 10° SSW 22:53:11 18° S 23:01:45 10° SE visible
